Home   Weather   Langesund   Past weeks

Flag for Norway Past Weather in Langesund, Norway — Yesterday and Last 2 Weeks

Now
41 °F

Quite cool.


Feels Like: 39 °F
Forecast: 31 / 50 °F
Wind: 3 mph from North

Location: Jomfruland Fyr

Current Time: Apr 26, 2017 at 12:20:58 am

Latest Report: Apr 25, 2017 at 11:00 pm


Visibility: N/A

Pressure: 29.66 "Hg

Humidity: 51%

Dew Point: 24 °F

Location of LangesundLocation

Past Weather in Langesund — Graph

°F

Langesund Temperature Yesterday

Maximum temperature yesterday: 44 °F (at 5:00 pm)
Minimum temperature yesterday: 35 °F (at 3:00 am)
Average temperature yesterday: 40 °F

High & Low Weather Summary for the Past Weeks

 TemperatureHumidityPressure
High56 °F (Apr 12, 2:00 pm)95% (Apr 17, 8:00 am)30.57 "Hg (Apr 17, 8:00 am)
Low29 °F (Apr 16, 5:00 am)22% (Apr 22, 2:00 pm)29.29 "Hg (Apr 24, 10:00 am)
Average42 °F64%29.87 "Hg
* Reported Apr 10 11:00 pm — Apr 25 11:00 pm, Langesund, Weather by CustomWeather, © 2017

Note: Actual official high and low records may vary slightly from our data, if they occured in-between our weather recording intervals... More about our weather records

Advertising

Langesund Weather History for the Previous 24 Hours

Scroll right to see more
 ConditionsComfort  
Time TempWeatherWind HumidityBarometerVisibility
11:00 pm
Tue, Apr 25
41 °FQuite cool.3 mph51%29.66 "HgN/A
10:00 pm41 °FQuite cool.2 mph53%29.65 "HgN/A
9:00 pm43 °FQuite cool.7 mph48%29.63 "HgN/A
8:00 pm44 °FQuite cool.7 mph48%29.61 "HgN/A
7:00 pm44 °FQuite cool.7 mph51%29.59 "HgN/A
6:00 pm43 °FQuite cool.7 mph63%29.59 "HgN/A
5:00 pm44 °FQuite cool.9 mph53%29.56 "HgN/A
4:00 pm44 °FQuite cool.8 mph53%29.55 "HgN/A
3:00 pm43 °FQuite cool.9 mph56%29.54 "HgN/A
2:00 pm42 °FQuite cool.8 mph58%29.50 "HgN/A
1:00 pm42 °FQuite cool.7 mph62%29.50 "HgN/A
12:00 pm42 °FQuite cool.8 mph62%29.47 "HgN/A
11:00 am38 °FChilly.9 mph72%29.47 "HgN/A
10:00 am37 °FChilly.7 mph71%29.44 "HgN/A
9:00 am38 °FChilly.8 mph69%29.44 "HgN/A
8:00 am37 °FChilly.8 mph72%29.41 "HgN/A
7:00 am37 °FChilly.7 mph73%29.38 "HgN/A
6:00 am36 °FChilly.6 mph77%29.38 "HgN/A
5:00 am36 °FChilly.5 mph81%29.38 "HgN/A
4:00 am35 °FChilly.5 mph86%29.35 "HgN/A
3:00 am35 °FChilly.7 mph92%29.35 "HgN/A
2:00 am35 °FChilly.8 mph91%29.35 "HgN/A
1:00 am36 °FChilly.7 mph79%29.35 "HgN/A
12:00 am38 °FChilly.8 mph70%29.35 "HgN/A
Weather by CustomWeather, © 2017

See weather overviewHow to use our weather pages